Delta Virtual Airport Information Service

London Heathrow Airport

ICAO: EGLL Country: United Kingdom
Latitude: 51.4775 Longitude: -0.46138
Latest Arrival : BAW20 (RJBB-EGLL) Latest Departure : DAC6717 (EGLL-EDDF)


WX CaptureLIVE
Data provided by noaa.gov | Fetched at 11:07:59

METAR : EGLL 151550Z AUTO VRB03KT 9999 NCD 25/11 Q1019 NOSIG

TAF : EGLL 151056Z 1512/1618 18005KT 9999 FEW040


Runway Data for EGLL
Data provided by openaviationdata.com

Runway ID Mag Var Hdg Length Elevation Surface ILS Freq ILS Id ILS Slope
09L -1 90° 13160 ft 83 ft Asphalt 110.3 IAA 3
09R -1 91° 12396 ft 83 ft Asphalt 109.5 IBB 3
27L -1 271° 12396 ft 83 ft Asphalt 109.5 ILL 3
27R -1 270° 13160 ft 83 ft Asphalt 110.3 IRR 3

London Heathrow Airport, United Kingdom
Use only for reference purposes



Not for navigational purposes.